SONATE-2

Last updated on Sun Jun 21 2026 00:03:20 GMT+0000 (Coordinated Universal Time)

1 59112U 24043Q 26171.41218347 .00036201 00000+0 46629-3 0 9999 2 59112 97.5542 322.0062 0007216 184.8807 175.2380 15.58929844128393
UTC large
Height (km)
Speed (km/s)
/
Latitude / Longitude
Inclination (degrees)
Orbital Period (minutes)
Azimuth
Elevation
Range (km)
Doppler Factor

Next 0 passes for location: London (51.5072 / 0.1276)

No passes found over London.
SONATE-2